Location: Unspecified
(0.0000°N, 0.0000°E)
Time: 23:51:00
(UTC+00:00)

Vanguard 2 - Pass Details

Date: 06 October 2020
Orbit: 554 x 2937 km, 32.9° (Epoch: 28 October)

Event Time Altitude Azimuth Distance (km) Brightness Sun altitude
Rises 22:03:34 0° 232° (SW) 6,422 12.6 -63.4°
Reaches altitude 10° 22:07:34 10° 231° (SW) 5,573 12.1 -64.4°
Enters shadow 22:15:17 35° 227° (SW) 4,051 11.1 -66.2°
Maximum altitude 22:25:32 82° 144° (SE) 2,895 - -68.7°
Drops below altitude 10° 22:41:08 10° 58° (ENE) 4,938 - -72.4°
Sets 22:44:26 0° 57° (ENE) 5,692 - -73.2°
